This demonstration page uses our WeatherBlox Daily Observations layout. Learn more.

Left ArrowRight Arrow

Hourly Observations for September 21, 2021

Temp ( °F °C ) Dew Point ( °F °C ) Humidity (%) Winds ( mph kmh ) Pressure ( in mb ) Visibility ( mi km ) Precip ( " mm )
12:53 am 00:53 Mostly Cloudy 50 10 34 1.1 54 54 SW 13 20 30.28 1026 10 16 N/A
1:53 am 01:53 Clear 49 9.4 34 1.1 56 56 SW 12 19 30.29 1026 10 16 N/A
2:53 am 02:53 Clear 48 8.9 32 undefined 54 54 SW 13 20 30.29 1026 10 16 N/A
3:53 am 03:53 Clear 49 9.4 32 undefined 52 52 SSW 15 24 30.28 1025 10 16 N/A
4:53 am 04:53 Clear 46 7.8 33 0.6 61 61 SW 14 22 30.29 1026 10 16 N/A
5:53 am 05:53 Clear 45 7.2 32 undefined 61 61 SW 13 20 30.29 1026 10 16 N/A
6:53 am 06:53 Clear 47 8.3 32 undefined 56 56 SSW 15 24 30.28 1025 10 16 N/A
7:53 am 07:53 Sunny 47 8.3 33 0.6 59 59 SW 13 20 30.29 1026 10 16 N/A
8:53 am 08:53 Sunny 52 11.1 33 0.6 49 49 SW 22 35 30.29 1026 10 16 N/A
9:53 am 09:53 Sunny 55 12.8 34 1.1 45 45 SW 20 31 30.28 1025 10 16 N/A
10:53 am 10:53 Sunny 61 16.1 35 1.7 38 38 SW 22 35 30.26 1025 10 16 N/A
11:53 am 11:53 Sunny 66 18.9 33 0.6 29 29 SW 17 28 30.23 1024 10 16 N/A
12:53 pm 12:53 Sunny 69 20.6 32 undefined 25 25 WSW 16 26 30.21 1023 10 16 N/A
1:53 pm 13:53 Sunny 71 21.7 31 -0.6 23 23 W 15 24 30.19 1022 10 16 N/A
2:53 pm 14:53 Sunny 73 22.8 31 -0.6 21 21 W 14 22 30.15 1021 10 16 N/A
3:53 pm 15:53 Sunny 75 23.9 32 undefined 21 21 WSW 20 31 30.12 1020 10 16 N/A
4:53 pm 16:53 Sunny 76 24.4 32 undefined 20 20 WSW 17 28 30.11 1020 10 16 N/A
5:53 pm 17:53 Sunny 77 25 31 -0.6 18 18 WSW 17 28 30.08 1019 10 16 N/A
6:53 pm 18:53 Sunny 74 23.3 30 -1.1 20 20 W 17 28 30.07 1018 10 16 N/A
7:53 pm 19:53 Clear 63 17.2 29 -1.7 28 28 WSW 12 19 30.09 1019 10 16 N/A
8:53 pm 20:53 Clear 58 14.4 30 -1.1 35 35 SW 10 17 30.10 1019 10 16 N/A
9:53 pm 21:53 Clear 55 12.8 29 -1.7 37 37 WSW 6 9 30.11 1020 10 16 N/A
10:53 pm 22:53 Clear 59 15 31 -0.6 35 35 SW 16 26 30.09 1019 10 16 N/A
11:53 pm 23:53 Clear 56 13.3 31 -0.6 39 39 WSW 8 13 30.09 1019 10 16 N/A

Powered by AerisWeather